Regional Weather Roundup
Issued by NWS

Home | Current Version | Previous Version | Graphics & Text | Print | Product List | Glossary On
Versions: 1 2 3 4 5 6 7 8 9 10 11 12 13 14 15 16 17 18 19 20 21 22 23 24 25 26 27 28 29 30 31 32 33 34 35 36 37 38 39 40 41 42 43 44 45 46 47 48 49 50
000
ASUS45 KTFX 031710
RWRMT
MONTANA REGIONAL WEATHER ROUNDUP
NATIONAL WEATHER SERVICE GREAT FALLS MT
1100 AM MDT FRI JUL 03 2015

NOTE: "FAIR" INDICATES FEW OR NO CLOUDS BELOW 12000 FEET WITH NO
SIGNIFICANT WEATHER AND/OR OBSTRUCTIONS TO VISIBILITY.

MTZ001>007-043-031800-
WEST OF THE DIVIDE

CITY           SKY/WX    TMP DP  RH WIND       PRES   REMARKS
KALISPELL      MOSUNNY   81  50  33 VRB3      29.96F
MISSOULA       SUNNY     78  45  30 CALM      30.00F
BUTTE          SUNNY     77  46  33 N3        30.11F
MULLAN PASS    SUNNY     74  40  29 NW9       30.17S
DEER LODGE       N/A     79  48  34 NE5       30.10F
EUREKA           N/A     79  52  38 CALM      29.96F
HAMILTON         N/A     81  43  26 E3        30.01F
PLAINS           N/A     82  50  32 CALM      29.96F
RONAN            N/A     84  52  33 S3        30.02F
THOMPSON FALLS   N/A     81  44  26 CALM      29.98F
$$

MTZ008-052>055-031800-
SOUTHWEST MONTANA

CITY           SKY/WX    TMP DP  RH WIND       PRES   REMARKS
BOZEMAN        SUNNY     77  50  38 SW7       30.05F
DILLON         SUNNY     75  48  38 CALM      30.08F
W YELLOWSTONE  SUNNY     72  45  37 SW3       30.18F
THREE FORKS      N/A     79  62  55 SE2       30.03F
$$

MTZ009-010-012-014-046-048-049-054-031800-
EAST SLOPES AND CENTRAL MONTANA

CITY           SKY/WX    TMP DP  RH WIND       PRES   REMARKS
CUT BANK       MOSUNNY   83  50  31 VRB3      29.96F
GREAT FALLS    SUNNY     84  51  31 VRB3      29.97F
MALMSTROM AFB  SUNNY     82  50  32 S6        29.96F
HELENA         SUNNY     81  52  36 VRB5      30.00F
CONRAD           N/A     83  64  52 E3        29.99F
$$

MTZ011-013-016-021-045-047-050-051-031800-
NORTH CENTRAL MONTANA

CITY           SKY/WX    TMP DP  RH WIND       PRES   REMARKS
HAVRE          SUNNY     84  54  35 NE6       29.92F HAZE
LEWISTOWN      MOSUNNY   84  49  29 E6        30.02F
CHINOOK          N/A     82  59  44 E9        29.92F
FORT BENTON      N/A     82  54  36 NE5       29.94F
$$

MTZ017>020-022>027-061-062-031800-
NORTHEAST MONTANA

CITY           SKY/WX    TMP DP  RH WIND       PRES   REMARKS
GLASGOW        SUNNY     78  59  51 S6        29.97F HAZE
JORDAN           N/A     80  55  42 VRB5      29.97F
SIDNEY         SUNNY     79  61  53 CALM      29.99F
WOLF POINT     SUNNY     78  61  55 E5        29.97F HAZE
MALTA            N/A     82  57  42 CALM      29.92F
PLENTYWOOD       N/A     75  63  64 CALM      30.00S
POPLAR           N/A     79  63  57 CALM      29.98F
SCOBEY           N/A     74  59  59 N3        29.99F
$$

MTZ028>42-056>058-031800-
SOUTHCENTRAL AND SOUTHEAST MONTANA

CITY           SKY/WX    TMP DP  RH WIND       PRES   REMARKS
BAKER          SUNNY     79  56  45 S7        30.04F
BILLINGS       MOSUNNY   79  51  37 CALM      30.02F
LIVINGSTON     SUNNY     78  51  38 VRB3      30.05F
MILES CITY     SUNNY     80  57  45 VRB3      29.99F
EKALAKA          N/A     78  54  43 SE7       30.03F
FORSYTH          N/A     81  55  41 E5        29.98F
LAUREL           N/A     78  52  40 NE3       30.01F
ROUNDUP          N/A     79  52  38 CALM      29.93F
$$

REGIONAL REPORTS...DAKOTAS

CITY           SKY/WX    TMP DP  RH WIND       PRES   REMARKS
WILLISTON      SUNNY     78  62  57 VRB5      29.99F HAZE
MINOT          CLOUDY    75  64  68 S5        29.98F HAZE
DICKINSON      SUNNY     79  60  52 S5        30.01S HAZE
BEACH          FAIR      77  59  53 SE7       30.03S HAZE
CROSBY         FAIR      73  70  88 CALM      30.00S FOG
BISMARCK       PTSUNNY   78  63  59 W6        30.00F HAZE
GRAND FORKS    MOSUNNY   77  64  64 NW6       29.93S HAZE
FARGO          MOSUNNY   79  66  64 N6        29.93S HAZE
BUFFALO SD       N/A     80  58  46 S5        29.98F
RAPID CITY     SUNNY     76  59  55 SE8       30.07F
$$

REGIONAL REPORTS...WYOMING/IDAHO/WASHINGTON

CITY           SKY/WX    TMP DP  RH WIND       PRES   REMARKS
GILLETTE       SUNNY     79  54  41 S12       30.08F
SHERIDAN       SUNNY     80  52  37 NE3       30.05F
BUFFALO WY     SUNNY     78  48  34 VRB5      30.12S
CODY           PTSUNNY   77  50  38 S7        30.09F
YELLOWSTONE LA   N/A     67  48  50 E5        30.30F
IDAHO FALLS    SUNNY     80  49  33 S13       30.05F
SALMON         SUNNY     75  43  31 CALM      30.02F
BOISE          SUNNY     87  49  26 NW6       29.94F
SPOKANE        MOSUNNY   85  46  25 E5        29.93F
$$

REGIONAL REPORTS...ALBERTA

CITY           SKY/WX    TMP DP  RH WIND       PRES   REMARKS
EDMONTON       SUNNY     79  52  38 N12G20    29.84S
CALGARY        MOSUNNY   81  46  30 N10       29.93F
LETHBRIDGE     PTSUNNY   81  59  47 W5        29.91F
MEDICINE HAT   MOSUNNY   88  54  31 S9        29.86F SMOKE
WATERTON GATE    N/A     82  50  32 SW6         N/A
MILK RIVER       N/A     84  52  32 SW3         N/A
ONEFOUR          N/A     81  50  34 S10         N/A
$$

REGIONAL REPORTS...SASKATCHEWAN

CITY           SKY/WX    TMP DP  RH WIND       PRES   REMARKS
SWIFT CURRENT  SUNNY     79  61  53 S13G18    29.94F HAZE
REGINA         CLOUDY    79  63  57 S10       29.97S SMOKE
SASKATOON      PTSUNNY   82  61  47 SW10      29.89F
CYPRESS HILLS    N/A     75  52  43 S9          N/A
VAL MARIE        N/A     81  57  44 S8          N/A
ASSINIBOIA       N/A     81  63  54 W5          N/A
$$


USA.gov is the U.S. government's official web portal to all federal, state and local government web resources and services.